Regional Weather Roundup
Issued by NWS Charleston, SC

Current Version | Previous Version | Graphics & Text | Print | Product List | Glossary On
Versions: 1 2 3 4 5 6 7 8 9 10 11 12 13 14 15 16 17 18 19 20 21 22 23 24 25 26 27 28 29 30 31 32 33 34 35 36 37 38 39 40 41 42 43 44 45 46 47 48 49 50
000
ASUS42 KCHS 291311
RWRCHS

REGIONAL WEATHER ROUNDUP
NATIONAL WEATHER SERVICE CHARLESTON SC
800 AM EST THU JAN 29 2015

NOTE: "FAIR" INDICATES FEW OR NO CLOUDS BELOW 12,000 FEET WITH NO
SIGNIFICANT WEATHER AND/OR OBSTRUCTIONS TO VISIBILITY.

NOT ALL STATIONS ARE QUALITY CONTROLLED BY THE NATIONAL
WEATHER SERVICE. USE DATA WITH CAUTION...ESPECIALLY
DEWPOINT OBSERVATIONS.

SCZ027-030-031-034>040-042>050-291400-
...SOUTHEAST SOUTH CAROLINA...

CITY           SKY/WX    TMP DP  RH WIND       PRES   REMARKS
N CHARLESTON   PTCLDY    31  26  82 CALM      30.37S
WATERFRONT PRK NOT AVBL
MOUNT PLEASANT FAIR     N/A N/A N/A CALM      30.37S
PINOPOLIS      NOT AVBL
MONCKS CORNER  FAIR      28  27  93 CALM      30.37S
SUMMERVILLE    FAIR      30  28  93 CALM      30.38S
BEAUFORT MCAS  PTCLDY    32  29  88 CALM      30.37F
BEAUFORT ARPT  FAIR      36  36 100 CALM      30.36F
HILTON HEAD IS CLEAR     34  34 100 N6        30.38S WCI  29
WALTERBORO     SUNNY     30 N/A N/A CALM      30.38S
ALLENDALE      FAIR      30  27  86 CALM      30.36S

...SOUTHERN MIDLANDS AND PEE DEE...

CITY           SKY/WX    TMP DP  RH WIND       PRES   REMARKS
GEORGETOWN     NOT AVBL
KINGSTREE      NOT AVBL
ORANGEBURG     CLEAR     28  25  88 CALM      30.36S
BARNWELL         N/A     28  27  93 CALM      30.37R
AIKEN          FAIR      28  25  86 CALM      30.37R
MANNING        FAIR      28  28 100 CALM      30.37S
COLUMBIA       MOCLDY    27  23  85 CALM      30.36R
SUMTER         CLEAR     29  24  82 CALM      30.35R
FLORENCE       CLEAR     26  22  84 CALM      30.37R
MYRTLE BEACH   CLEAR     28  23  80 N6        30.40R WCI  22
N MYRTLE BEACH PTCLDY    27  24  89 CALM      30.37R

$$

GAZ063-065-086>088-099>101-113>116-118-119-134>141-150-291400-
...SOUTHEAST GEORGIA...

CITY           SKY/WX    TMP DP  RH WIND       PRES   REMARKS
SAVANNAH ARPT  MOCLDY    31  29  92 CALM      30.37F
HUNTER AAF     PTCLDY    33  31  91 W1        30.35S
FORT STEWART   PTCLDY    30  27  90 VRB1      30.36S
STATESBORO     PTCLDY    29  29 100 CALM      30.36S
SYLVANIA       MOSUNNY   29  29 100 CALM      30.37S
CLAXTON        FAIR      30  28  93 CALM      30.37S

...CSRA...CENTRAL AND FAR SOUTHEAST GEORGIA...

CITY           SKY/WX    TMP DP  RH WIND       PRES   REMARKS
THOMSON        PTCLDY    32  29  88 CALM      30.39R
AUGUSTA-BUSH   PTCLDY    25  23  92 CALM      30.37R
AUGUSTA-DANIEL PTCLDY    34  26  72 SE5       30.35R WCI  30
SWAINSBORO     FAIR      32  30  93 CALM      30.36S
VIDALIA        PTCLDY    32  30  93 CALM      30.36R
EASTMAN        FAIR      29  29 100 CALM      30.38S FOG
HAZLEHURST     FAIR      32  32 100 CALM      30.36R
ALMA           PTCLDY    31  30  96 CALM      30.36R
WAYCROSS       CLEAR     35  33  94 CALM      30.37R
JESUP          FAIR      32  32 100 CALM      30.37S
BAXLEY         FAIR      32  32 100 CALM      30.36R
BRUNSWICK      PTCLDY    36  34  93 CALM      30.37R
SAINT SIMONS   PTCLDY    40  36  86 N5        30.36R WCI  37

$$

SCZ027-028-034-036>038-045-046-048>050-GAZ119-141-291400-
...LAKE AND SUPPLEMENTAL COASTAL OBSERVATIONS...

STATION/POSITION TIME  TEMP    WIND        PRES    WAVE   SWELL
                       AIR SEA DIR/SP/G            HT/PER HT/PER/DIR
                 (UTC) (F)     (DEG/KT/KT) (MB)    (FT/S) (FT/S/D)
UPR LAKE MARION  NOT AVBL
WINYAH BAY       1145   32     330/  3     1026.0
LAKE MURRAY      1200   40     160/  7/  8 1026.4F
ACE BASIN NERRS  NOT AVBL
FORT PULASKI     1200   43 51  340/  5/  6 1028.5R
SAPELO ISLAND    1200   36     340/  1     1027.0S

$$

ANZ835-935-AMZ111-154-330-350-352-354-370-450-454-472-291400-
...C-MAN AND BUOY OBSERVATIONS...

STATION/POSITION TIME  TEMP    WIND        PRES    WAVE   SWELL
                       AIR SEA DIR/SP/G            HT/PER HT/PER/DIR
                 (UTC) (F)     (DEG/KT/KT) (MB)    (FT/S) (FT/S/D)
BUOY 41004       1250   52 67   50/  6/  8 1027.8R   4/ 6   3/ 6
BUOY 41008       1250   52 53   40/  8/ 10 1027.8R   3/11   2/ 80/11
FOLLY BEACH CMAN 1300   42     360/  4/  5 1028.7R
CAPERS NEARSHORE 1200   46      40/  6/  8   N/A
FRIPP NEARSHORE  1200   48      50/  6/  8 1027.0R


STATION/POSITION TIME  TEMP    WIND        PRES    WAVE   SWELL
                       AIR SEA DIR/SP/G            HT/PER HT/PER/DIR
                 (UTC) (F)     (DEG/KT/KT) (MB)    (FT/S) (FT/S/D)
5E ST. MARYS GA  NOT AVBL
FRYING PAN BUOY  1250   47 65  360/  8/ 12 1028.8R   4/ 6   3/ 70/ 6
BUOY 41025       1250   40 71  350/ 14/ 17 1026.9R   7/10   7/ 30/10
CAPE LOOKOUT NC  1200   34     340/  7/  9 1027.7R
BUOY 41002       1250   55 72  350/ 12/ 17 1025.6R   9/10   8/ 20/10
BUOY 41010       1220   63 75   50/ 12/ 16 1024.9R
ST AUGUSTINE FL  1300   47     300/  5/  6 1027.1R


$$



USA.gov is the U.S. government's official web portal to all federal, state and local government web resources and services.